Location: Vihti�l�
(61.3833°N, 23.0667°E)
Time: 04:59:28
(UTC+00:00)

H-2A R/B - Pass Details

Date: 29 November 2020
Orbit: 499 x 540 km, 97.3° (Epoch: 22 January)

Event Time Altitude Azimuth Distance (km) Brightness Sun altitude
Rises 04:30:17 0° 16° (NNE) 2,720 6.4 -17.2°
Reaches altitude 10° 04:32:25 10° 17° (NNE) 1,822 5.5 -16.9°
Maximum altitude 04:36:23 84° 107° (ESE) 553 2.8 -16.4°
Drops below altitude 10° 04:40:17 10° 195° (SSW) 1,798 5.4 -16.0°
Sets 04:42:23 0° 196° (SSW) 2,681 6.3 -15.8°
